Find Kosmos-2181

NORAD ID: 21902 Int'l Des: 1992-012 Owner: VMFR Country: RU operational
LEOCIRCULARPOLAR

Live-Position

3D-Globus wird geladen...

Über Kosmos-2181

Beschreibung wird geladen...

Nächste Überflüge

Passes for default location (London). Set your location on the main map for personalized predictions.

Höhenverlauf

Loading altitude history...

Zweizeiliger Elementsatz

1 21902U 92012A 26132.34898421 .00000050 00000-0 38160-4 0 9998
2 21902 82.9430 334.3969 0028488 176.5192 356.7880 13.72569027711402
Epoch: 12. Mai 2026 • Age: 10 hours

Aktueller Status

Höhe 978.7 km
Geschwindigkeit 7.37 km/s
Subsatellitenpunkt 39.45°N, 2.98°W
Startdatum 9. März 1992
Alter 34.1 years
Typ other

Technische Details

Klassifizierung Payload
Masse 800.00 kg
Trockenmasse 800.00 kg
Gesamtmasse 800.00 kg
Länge 5.00 m
Durchmesser 2.10 m
Spannweite 17.00 m
Form Cyl + Ant
Hersteller POL
Bus-Typ KAUR-1 11F643
Phasenstatus In Orbit
Besitzer/Staat VMFR/RU

Most Searched